Flag for Germany Past Weather in Pfaffenhofen an der Ilm, Bavaria, Germany — Yesterday and Last 2 Weeks

Now
61 °F

Cool.


Feels Like: 61 °F
Forecast: 57 / 66 °F
Wind: 6 mph from West

Location: Ingolstadt Airport

Current Time: May 28, 2016 at 2:07:31 AM

Latest Report: May 28, 2016 at 1:20 AM


Visibility: 4 mi

Pressure: 29.98 "Hg

Humidity: 94%

Dew Point: 59 °F

Location of Pfaffenhofen an der IlmLocation

Past Weather in Pfaffenhofen an der Ilm — Graph

°F

Pfaffenhofen an der Ilm Temperature Yesterday

Maximum temperature yesterday: 75 °F (at 4:20 PM)
Minimum temperature yesterday: 55 °F (at 3:20 AM)
Average temperature yesterday: 65 °F

High & Low Weather Summary for the Past Weeks

 TemperatureHumidityPressure
High82 °F (May 22, 3:20 PM)100% (May 13, 1:20 AM)30.15 "Hg (May 13, 1:20 AM)
Low36 °F (May 18, 4:20 AM)32% (May 22, 5:20 PM)29.42 "Hg (May 13, 5:20 AM)
Average54 °F77%29.93 "Hg
* Reported May 13 12:20 AM — May 28 12:20 AM, Pfaffenhofen an der Ilm, Weather by CustomWeather, © 2016

Note: Actual official high and low records may vary slightly from our data, if they occured in-between our weather recording intervals... More about our weather records

Advertising

Pfaffenhofen an der Ilm Weather History for the Previous 24 Hours

Scroll right to see more
 ConditionsComfort  
Time TempWeatherWind HumidityBarometerVisibility
12:20 AM
Sat, May 28
61 °FCool.1 mph94%29.98 "Hg3 mi
11:20 PM
Fri, May 27
61 °FCool.2 mph88%29.95 "Hg2 mi
10:20 PM63 °FMild.2 mph88%29.95 "Hg4 mi
9:20 PM66 °FMild.1 mph78%29.95 "Hg4 mi
8:20 PM70 °FMild.2 mph73%29.95 "Hg4 mi
7:20 PM73 °FMild.5 mph57%29.95 "Hg4 mi
6:20 PM75 °FMild.3 mph54%29.92 "Hg4 mi
5:20 PM73 °FMild.3 mph57%29.95 "Hg4 mi
4:20 PM75 °FMild.2 mph54%29.95 "Hg4 mi
3:20 PM73 °FMild.3 mph57%29.95 "Hg4 mi
2:20 PM73 °FMild.3 mph61%29.95 "Hg4 mi
1:20 PM72 °FPartly sunny.5 mph65%29.95 "HgN/A
12:20 PM72 °FMild.3 mph61%29.98 "Hg4 mi
11:20 AM70 °FMild.5 mph64%29.98 "Hg4 mi
10:20 AM66 °FMild.12 mph68%29.98 "Hg4 mi
9:20 AM63 °FMild.9 mph77%29.98 "Hg4 mi
8:20 AM61 °FCool.7 mph77%29.95 "Hg4 mi
7:20 AM57 °FCool.8 mph88%29.95 "Hg4 mi
6:20 AM55 °FCool.5 mph94%29.95 "Hg4 mi
5:20 AM55 °FCool.6 mph94%29.95 "Hg4 mi
4:20 AM55 °FCool.2 mph94%29.95 "Hg4 mi
3:20 AM55 °FCool.5 mph94%29.95 "Hg3 mi
2:20 AM57 °FCool.2 mph88%29.95 "Hg4 mi
Weather by CustomWeather, © 2016

See weather overviewHow to use our weather pages